THORAD DELTA 1 DEB, 8435

Orbit data source: Space-Track

THORAD DELTA 1 DEB, 8435 is space debris in SSO originally from a launch on Fri, 15 Nov 1974 UTC launched from the Air Force Western Test Range (AFWTR). Debris objects in space refer to the collection of defunct objects orbiting the Earth. Examples of debris include non-operational satellites, rocket bodies, and fragments generated from explosions, collisions, or faulty payload assembly.

Loading next visibility...
Identifier
8435, 1974-089CL
Orbit
SSO
Country
Flag of USUS
Related business
Manufacturer
Unknown
Mission
Spacecraft
Bus & Motor
Unknown
Mass
Unknown
Launch date (UTC)
1974-11-15 (52 years ago)
Launch vehicle
Unknown
Launch site
Air Force Western Test Range (AFWTR)
Object type
Payload
Rocket body
Debris
Shape & HBR
Unknown shape, 0.1 m
Radar Cross Section
Medium (>0.1 m² and <1 m²)

Expand to show TLE details & history
Last TLE update: 17 hours ago

TLE from 17 hours ago
0 THORAD DELTA 1 DEB
1 08435U 74089CL  26175.20648659 -.00000031  00000-0  79828-4 0  9992
2 08435 101.5636  39.4331 0165054 160.7396 324.8136 12.20830494300092
Epoch: 2026-06-24T04:57Z
TLE epoch observation values (Epoch: 2026-06-24T04:57:20.441Z)
Latitude
53.98886°
Longitude
-111.0016°
Altitude
1,490.832 km
Speed
7.171 km/s
True Right ascension
15h 42m 48s
True Declination
53° 50' 26"
Sunlit
Object was in daylight at epoch
Visualization orbit readout
Latitude
Unknown
Longitude
Unknown
Altitude
Unknown
Speed
Unknown
Apparent Right ascension
Unknown
Apparent Declination
Unknown
Sunlit
N/A
Visualization observer readout
Local Sidereal Time
09:06:26
Azimuth
Unknown
Elevation
Unknown
Doppler factor
Unknown
Orbital elements
Apogee altitude
1,717.959 km
Perigee altitude
1,455.04 km
Semi-major axis
7,964.637 km
Eccentricity
0.01651
Inclination
101.5636°
RAAN
39.4331°
Arg. of periapsis
160.7396°
True anomaly
323.7051°
Mean anomaly
324.8136°
Eccentric anomaly
324.26123°
Mean motion
3.05347 °/min
Orbital period
117.9 mins
BSTAR
0.000079828
Loading maneuver chart data...
Computing Atmospheric mass density...

Documentation

Showing up to 5 results
|